TimePST,TemperatureF,Dew PointF,Humidity,Sea Level PressureIn,VisibilityMPH,Wind Direction,Wind SpeedMPH,Gust SpeedMPH,PrecipitationIn,Events,Conditions,WindDirDegrees,DateUTC
12:53 AM,48.0,41.0,77,30.09,10.0,Calm,Calm,-,N/A,,Clear,0,2012-12-22 08:53:00
1:53 AM,48.0,37.0,66,30.08,10.0,Calm,Calm,-,N/A,,Clear,0,2012-12-22 09:53:00
2:53 AM,46.9,35.1,63,30.08,10.0,Calm,Calm,-,N/A,,Clear,0,2012-12-22 10:53:00
3:53 AM,46.0,35.1,66,30.08,10.0,Calm,Calm,-,N/A,,Clear,0,2012-12-22 11:53:00
4:53 AM,45.0,37.0,74,30.10,10.0,Calm,Calm,-,N/A,,Clear,0,2012-12-22 12:53:00
5:53 AM,46.0,36.0,68,30.12,10.0,Calm,Calm,-,N/A,,Clear,0,2012-12-22 13:53:00
6:53 AM,46.0,35.1,66,30.12,10.0,Calm,Calm,-,N/A,,Clear,0,2012-12-22 14:53:00
7:53 AM,46.9,33.1,59,30.12,10.0,Calm,Calm,-,N/A,,Clear,0,2012-12-22 15:53:00
8:53 AM,50.0,36.0,59,30.15,10.0,East,3.5,-,N/A,,Clear,100,2012-12-22 16:53:00
9:18 AM,51.8,37.4,58,30.16,1.8,SE,3.5,-,N/A,,Haze,130,2012-12-22 17:18:00
9:32 AM,51.8,37.4,58,30.17,10.0,Calm,Calm,-,N/A,,Clear,0,2012-12-22 17:32:00
9:53 AM,55.0,37.9,53,30.17,2.5,Calm,Calm,-,N/A,,Haze,0,2012-12-22 17:53:00
10:09 AM,55.4,37.4,51,30.17,10.0,Calm,Calm,-,N/A,,Clear,0,2012-12-22 18:09:00
10:53 AM,59.0,39.0,48,30.18,10.0,Calm,Calm,-,N/A,,Clear,0,2012-12-22 18:53:00
11:53 AM,60.1,46.0,60,30.15,10.0,SW,6.9,-,N/A,,Scattered Clouds,230,2012-12-22 19:53:00
12:53 PM,61.0,44.1,54,30.13,10.0,Variable,3.5,-,N/A,,Mostly Cloudy,0,2012-12-22 20:53:00
1:53 PM,61.0,46.0,58,30.12,10.0,West,8.1,-,N/A,,Mostly Cloudy,270,2012-12-22 21:53:00
2:53 PM,60.1,46.9,62,30.13,10.0,West,5.8,-,N/A,,Overcast,270,2012-12-22 22:53:00
3:53 PM,60.1,46.9,62,30.14,10.0,WSW,4.6,-,N/A,,Overcast,250,2012-12-22 23:53:00
4:53 PM,59.0,48.0,67,30.14,10.0,West,5.8,-,N/A,,Overcast,270,2012-12-23 00:53:00
5:53 PM,59.0,48.0,67,30.15,10.0,Calm,Calm,-,N/A,,Overcast,0,2012-12-23 01:53:00
6:53 PM,59.0,46.9,64,30.16,10.0,Variable,3.5,-,N/A,,Overcast,0,2012-12-23 02:53:00
7:04 PM,59.0,48.2,67,30.16,10.0,NNE,4.6,-,N/A,,Overcast,20,2012-12-23 03:04:00
7:53 PM,57.0,48.9,74,30.18,10.0,Calm,Calm,-,N/A,,Overcast,0,2012-12-23 03:53:00
8:26 PM,55.4,51.8,88,30.19,4.0,Calm,Calm,-,0.00,Rain,Light Rain,0,2012-12-23 04:26:00
8:53 PM,54.0,51.1,90,30.20,4.0,Calm,Calm,-,0.00,Rain,Light Rain,0,2012-12-23 04:53:00
9:35 PM,55.4,51.8,88,30.20,7.0,Calm,Calm,-,0.01,,Overcast,0,2012-12-23 05:35:00
9:53 PM,54.0,52.0,93,30.20,6.0,Calm,Calm,-,0.01,Rain,Light Rain,0,2012-12-23 05:53:00
10:11 PM,55.4,51.8,88,30.19,7.0,East,4.6,-,0.00,,Overcast,90,2012-12-23 06:11:00
10:23 PM,55.4,51.8,88,30.19,7.0,East,5.8,-,0.00,,Overcast,100,2012-12-23 06:23:00
10:34 PM,55.4,51.8,88,30.19,8.0,ESE,4.6,-,0.00,,Overcast,110,2012-12-23 06:34:00
10:53 PM,55.0,52.0,89,30.18,7.0,East,4.6,-,0.00,,Overcast,90,2012-12-23 06:53:00
11:45 PM,55.4,51.8,88,30.18,6.0,ESE,3.5,-,N/A,,Overcast,120,2012-12-23 07:45:00
11:53 PM,55.0,52.0,89,30.18,6.0,Calm,Calm,-,N/A,,Overcast,0,2012-12-23 07:53:00